Location: Burbank
(38.7788°N, 114.0429°W)
Time: 14:24:37
(UTC+00:00)

Injun/Solrad 3 - Pass Details

Date: 23 May 2026
Orbit: 867 x 989 km, 66.8° (Epoch: 8 June)

Event Time Altitude Azimuth Distance (km) Brightness Sun altitude
Rises 05:11:17 0° 339° (NNW) 3,687 12.4 -22.0°
Reaches altitude 10° 05:14:16 10° 351° (N) 2,745 11.2 -22.3°
Maximum altitude 05:19:44 28° 49° (NE) 1,749 9.4 -22.9°
Enters shadow 05:22:25 22° 86° (E) 2,032 9.4 -23.2°
Drops below altitude 10° 05:25:12 10° 107° (ESE) 2,740 - -23.5°
Sets 05:28:09 0° 119° (ESE) 3,678 - -23.8°
